www.pogodaiklimat.ru

Погода и климат >> Архив погоды >> Россия >> Камчатский край >> Мыс Лопатка


ПОГОДА на Мысе Лопатка

  • Прогноз погоды на Мысе Лопатка
  • Монитор погоды на Мысе Лопатка
  • Климат города

АРХИВ ПОГОДЫ на Мысе Лопатка

Время (UTC), дата Ветер
(напр.,м/с)
 
Видим.   Явления Облачность Т
(С)
Тd
(С)
f
(%)
Тe
(С)
Тes
(С)
Комфортность P
(гПа)
Po
(гПа)
Тmin
(С)
Tmax
(С)
R
(мм)
R24
(мм)
S
(см)
15 11.10 Ю 3 20 км 4/1 600 м
[Sc Ci fib]
+7.5 1019.8 1013.7
18 11.10 ЮВ 2 20 км 10/10 600 м
[Sc]
+7.2 1018.8 1012.7
21 11.10 Ю 5 20 км 10/0
[Ac As]
+7.0 1017.0 1010.9 +6.4
00 12.10 Ю 7-11
{11}
10 км слабый дождь 10/10 300 м
[Frnb Ns]
+7.2 1014.2 1008.1
03 12.10 Ю 6
{14}
4000 м слабый дождь 10/10 200 м
[Frnb Ns]
+7.1 0.0 61 +3 +3 1010.9 1004.8
06 12.10 Ю 7-10
{12}
4000 м слабый дождь 10/10 200 м
[Frnb Ns]
+7.6 1008.1 1002.0
09 12.10 Ю 5
{11}
4000 м дождь 10/10 200 м
[Frnb Ns]
+7.8 0.0 58 +4 +4 1006.9 1000.8 +8.1 10
12 12.10 ЮЗ 3 10 км слабый дождь 10/10 300 м
[Frnb Ns]
+7.4 1004.6 998.5
15 12.10 СЗ 3 2000 м слабый дождь 10/10 100 м
[Frnb Ns]
+7.6 0.0 59 +5 +5 1001.8 995.7
18 12.10 СЗ 14-17
{19}
20 км {дождь} 10/10 600 м
[Sc]
+6.0 1001.4 995.2
21 12.10 СЗ 15-20
{21}
50 км 3/1 600 м
[Cb calv]
+6.0 1002.3 996.1 +4.4 8
00 13.10 СЗ 16-20
{23}
50 км в посл. час ливневой дождь 3/3 600 м
[Cb calv]
+7.2 1004.4 998.3
03 13.10 СЗ 16-21
{24}
50 км 4/4 600 м
[Sc]
+8.2 1006.1 1000.0
06 13.10 СЗ 15-20
{23}
50 км 4/4 600 м
[Sc]
+7.3 1008.2 1002.1
09 13.10 З 15-20
{21}
20 км 1/1 600 м
[Sc]
+7.2 0.0 60 +1 +1 1009.2 1003.1 +8.9 0.4
12 13.10 СЗ 15-18
{24}
20 км в посл. час ливневой дождь 1/1 600 м
[Sc]
+6.9 1009.7 1003.6
15 13.10 СЗ 17-24
{24}
20 км 1/1 600 м
[Sc]
+6.6 0.0 63 -0 -0 1011.0 1004.9
18 13.10 СЗ 15-20
{24}
20 км в посл. час ливневой дождь 3/3 600 м
[Sc diur, vesp]
+6.8 1014.2 1008.1
21 13.10 СЗ 15-20
{22}
20 км 1/1 600 м
[Sc]
+6.4 0.0 64 -0 -0 1016.5 1010.2 +5.8 0.8
00 14.10 СЗ 13-16
{23}
50 км 1/1 600 м
[Sc]
+8.0 1017.7 1011.6
03 14.10 СЗ 13-17
{18}
50 км 5/5 600 м
[Sc]
+8.6 0.0 55 +3 +3 1018.6 1012.5
06 14.10 СЗ 11-14
{18}
50 км 3/3 600 м
[Sc]
+7.9 1020.2 1014.1
09 14.10 СЗ 7-10
{14}
20 км 1/1 600 м
[Sc]
+6.7 0.0 62 +2 +2 1021.9 1015.7 +9.2
12 14.10 СЗ 6
{10}
20 км 1/1 600 м
[Sc]
+6.8 1022.2 1016.0
15 14.10 З 3 20 км 3/3 600 м
[Sc]
+6.4 0.0 64 +4 +4 1022.2 1015.9
18 14.10 СЗ 7-10
{10}
20 км ясно +6.2 0.0 64 +1 +1 1022.1 1015.8
21 14.10 СЗ 4
{10}
50 км 9/1 600 м
[Sc Ci fib]
+6.0 1022.2 1015.9 +5.5
00 15.10 СЗ 4 50 км 6/1 600 м
[Sc Ac lent Ci fib]
+8.3 0.0 56 +6 +7 1021.7 1015.5
03 15.10 ЮЗ 3 50 км 3/1 600 м
[Sc Ci sp]
+8.3 1020.5 1014.4
06 15.10 ЮЗ 3 20 км 9/9 600 м
[Sc]
+6.6 1020.1 1014.0
09 15.10 ЮЗ 3 20 км 6/3 600 м
[Sc Ac trans]
+6.0 1019.2 1012.9 +9.1
12 15.10 ЮЗ 3 2000 м дымка 10/10 100 м
[St]
+5.9 0.0 66 +3 +3 1019.6 1013.3
15 15.10 ЮЗ 2 2000 м дымка 10/10 100 м
[St]
+5.6 1019.5 1013.2
18 15.10 Ю 3 2000 м дымка 9/9 100 м
[St]
+5.2 0.0 69 +2 +2 1018.9 1012.6
21 15.10 ЮЗ 2 4000 м дымка 9/8 100 м
[St Ac trans]
+5.2 1018.9 1012.6 +5.1
00 16.10 ЮВ 1 20 км 9/9 600 м
[Sc]
+6.9 0.0 61 +6 +7 1018.5 1012.4
03 16.10 Ю 2 20 км 9/8 600 м
[Sc Ac trans]
+8.1 1018.2 1012.1
06 16.10 С 1 50 км 8/1 600 м
[Sc Ac trans Ci fib]
+8.2 0.0 56 +8 +8 1017.9 1011.8
09 16.10 Ю 4 4000 м дымка 10/10 100 м
[St]
+5.8 1018.8 1012.5 +8.8
12 16.10 ЮЗ 6-10
{11}
20 км 3/1 600 м
[Sc Ci fib]
+5.6 0.0 67 +1 +1 1018.7 1012.4
15 16.10 В 4
{10}
2000 м дымка 10/10 100 м
[St]
+6.2 1018.5 1012.2
18 16.10 В 4 20 км 9/9 200 м
[St]
+5.4 0.0 68 +2 +2 1017.2 1010.9
21 16.10 ЮВ 8-10
{11}
20 км 9/8 600 м
[Sc Ac trans Ci fib]
+6.5 1015.2 1009.1 +4.9
00 17.10 ЮВ 9-12
{12}
10 км слабый дождь 10/3 300 м
[Frnb Ac As]
+6.8 0.0 62 +2 +2 1013.3 1007.2
03 17.10 ЮВ 10-13
{15}
4000 м дождь 10/10 200 м
[Frnb Ns]
+7.2 1010.5 1004.4
06 17.10 В 15-18
{18}
4000 м слабый дождь 10/10 300 м
[Frnb Ns]
+7.2 0.0 60 +1 +1 1006.2 1000.1
09 17.10 ЮВ 11-14
{18}
2000 м слабый дождь 10/10 100 м
[Frnb Ns]
+7.4 1003.9 997.8 +7.4 9
12 17.10 Ю 1
{14}
4000 м в посл. час туман {дождь} 6/6 100 м
[St]
+6.8 0.0 62 +6 +6 1002.8 996.7
15 17.10 Ю 1 20 км 1/1 600 м
[Sc]
+6.3 1002.4 996.2
18 17.10 Ю 2 20 км ясно +5.2 0.0 69 +3 +3 1001.8 995.6
21 17.10 З 5 20 км 1/1 600 м
[Sc]
+6.0 1001.9 995.7 +4.6 0.3
00 18.10 ЮЗ 3 20 км 3/1 600 м
[Cu med, cong Ci fib]
+8.0 0.0 57 +6 +8 1001.7 995.6
03 18.10 ЮЗ 4 20 км 8/8 600 м
[Sc]
+7.9 999.9 993.9
06 18.10 ЮЗ 5 20 км 6/3 600 м
[Sc Ac trans]
+6.7 0.0 62 +3 +3 999.2 993.2
09 18.10 ЮЗ 7-10
{12}
20 км {ливн. осадки} 3/1 600 м
[Sc Ac trans]
+6.0 0.0 65 +1 +1 998.4 992.3 +8.6 0.9

 

Местоположение метеостанции Мыс Лопатка (Камчатский край, Россия): широта 50.87 долгота 156.60 высота над уровнем моря 50 м.

В архиве по умолчанию представлена погода на Мысе Лопатка за последнюю неделю. Архивные данные за месяц целиком и за предыдущие месяцы, начиная с января 2011 года, Вы можете получить, выбрав интересующий диапазон дат из раскрывающегося списка и нажав кнопку "Ввод!".


*Определитесь, кто Вы:
робот инопланетянин человек

Внимание! Время в таблицах - всемирное. Для получения местного времени необходимо прибавить поправку, которая на Мысе Лопатка равна 12 ч.

Смотрите также архив погоды в соседних городах и на ближайших метеорологических станциях:

Погода в Северо-Курильске (Сахалинская область, Россия) (41 км)
Погода в Озерной (Камчатский край, Россия) (69 км)
Погода в Водопадной (Камчатский край, Россия) (144 км)
Погода в Большерецке (Камчатский край, Россия) (219 км)
Погода в Начиках (Камчатский край, Россия) (261 км)
Погода в Петропавловск-Камчатском (Камчатский край, Россия) (261 км)
Погода в Петропавловском Маяке (Камчатский край, Россия) (266 км)
Погода в Сосновке (Камчатский край, Россия) (272 км)
Погода в Петропавловск-Камч. 2 (Камчатский край, Россия) (278 км)
Погода в Пущино (Камчатский край, Россия) (380 км)

Пояснения к столбцам:

Ветер - указаны скорость ветра в м/с - средняя за 10 мин, порывы в срок и между сроками (в фигурных скобках) и направление, откуда дует ветер: С - северный, СВ - северо-восточный, В - восточный, ЮВ - юго-восточный, Ю - южный, ЮЗ - юго-западный, З - западный, СЗ - северо-западный.
Видимость - горизонтальная дальность видимости в метрах или километрах. При видимости от 1 до 10 км при отсутствии осадков обычно наблюдается дымка, при ухудшении видимости до 1 км и менее - туман. В сухую погоду видимость может ухудшаться дымом, пылью или мглою.
Явления - указаны атмосферные явления, наблюдавшиеся в срок или в последний час перед сроком; фигурными скобками обозначены явления, наблюдавшиеся между сроками (за 1-3 часа до срока); квадратными скобками обозначены град или гололедные отложения с указанием их диаметра в мм.
Облачность - указаны через наклонную черту общая и нижняя облачность в баллах и высота нижней границы облаков в метрах; квадратными скобками обозначены формы облаков: Ci - перистые, Cs - перисто-слоистые, Cc - перисто-кучевые, Ac - высококучевые, As - высокослоистые, Sc - слоисто-кучевые, Ns - слоисто-дождевые, Cu - кучевые, Cb - кучево-дождевые. Подробнее классификацию облаков см. в Атласе облаков (PDF).
T - Температура воздуха - температура, измеренная на высоте 2 м над землей.
Td - Температура точки росы - температура, при понижении до которой содержащийся в воздухе водяной пар достигнет насыщения.
f - Относительная влажность воздуха - влажноcть воздуха, измеренная на высоте 2 м над землей.
Te - Эффективная температура - температура, которую ощущает одетый по сезону человек в тени. Характеристика душности погоды. При расчете учитывается влияние влажности воздуха и скорости ветра на теплоощущения человека.
Tes - Эффективная температура на солнце - температура, которую ощущает человек, с поправкой на солнечный нагрев. Характеристика знойности погоды. Зависит от высоты солнца над горизонтом, облачности и скорости ветра. Ночью, в пасмурную погоду, а также при ветре 12 м/с и более поправка равна нулю.
P - Атмосферное давление - приведенное к уровню моря атмосферное давление.
Po - Атмосферное давление - измеренное на уровне метеостанции атмосферное давление.
Tmin - Минимальная температура - минимум температуры воздуха на высоте 2 м над землей.
Tmax - Максимальная температура - максимум температуры воздуха на высоте 2 м над землей.
R - Количество осадков - Количество выпавших осадков за период времени, мм. При наведении курсора мыши на число - период времени, за который выпало указанное количество осадков.
R24 - Количество осадков - Количество выпавших осадков за 24 часа, мм.
S - Снежный покров - Высота снежного покрова, см. При наведении курсора мыши на число - состояние снежного покрова и степень покрытия местности в баллах.